FW9042 Weather Reports


Display with metric or nautical units.
time (UTC)temp
F
wind
direction
speed
MPH
gust
MPH
rain 1hr
in
rain 24hr
in
rain mn
in
humidity
%
barometer
mb
20260502130446 49 213 1.0 2.0 0.00 0.00 0.00 46 1020.3
20260502123429 46 213 2.0 2.0 0.00 0.00 0.00 48 1020.2
20260502122926 45 227 2.0 2.0 0.00 0.00 0.00 48 1020.2
20260502122422 45 227 2.0 2.0 0.00 0.00 0.00 49 1020.3
20260502121920 45 222 0.0 1.0 0.00 0.00 0.00 51 1020.1
20260502121417 45 222 0.0 0.0 0.00 0.00 0.00 51 1020.4
20260502120915 46 223 1.0 1.0 0.00 0.00 0.00 48 1020.2
20260502120410 46 227 1.0 1.0 0.00 0.00 0.00 48 1020.2
20260502115908 46 223 1.0 1.0 0.00 0.00 0.00 48 1020.2
20260502115405 46 226 1.0 1.0 0.00 0.00 0.00 48 1020.3
20260502114901 46 226 2.0 3.0 0.00 0.00 0.00 48 1020.1
20260502114358 46 228 3.0 3.0 0.00 0.00 0.00 49 1020.1
20260502113855 46 228 2.0 2.0 0.00 0.00 0.00 50 1020.1
20260502113352 47 214 1.0 1.0 0.00 0.00 0.00 51 1020.3
20260502112851 47 203 2.0 2.0 0.00 0.00 0.00 51 1019.9
20260502112348 47 191 2.0 2.0 0.00 0.00 0.00 50 1020.1
20260502111845 47 228 1.0 1.0 0.00 0.00 0.00 53 1020.3
20260502111342 47 219 2.0 2.0 0.00 0.00 0.00 55 1020.1
20260502110840 47 197 0.0 1.0 0.00 0.00 0.00 58 1020.3
20260502110338 47 187 2.0 5.0 0.00 0.00 0.00 58 1020.3
20260502105835 48 186 3.0 3.0 0.00 0.00 0.00 58 1020.2
20260502105332 48 175 0.0 1.0 0.00 0.00 0.00 59 1020.2
20260502104830 48 166 3.0 5.0 0.00 0.00 0.00 57 1020.3
20260502104327 48 164 3.0 5.0 0.00 0.00 0.00 55 1020.3
20260502103824 48 225 0.0 1.0 0.00 0.00 0.00 55 1020.4
20260502103321 48 198 2.0 3.0 0.00 0.00 0.00 56 1020.2
20260502102819 49 207 1.0 2.0 0.00 0.00 0.00 56 1020.3
20260502102315 48 188 2.0 3.0 0.00 0.00 0.00 54 1020.2
20260502101813 48 164 3.0 5.0 0.00 0.00 0.00 51 1020.3
20260502101311 47 228 1.0 1.0 0.00 0.00 0.00 49 1020.1
20260502100809 47 234 1.0 1.0 0.00 0.00 0.00 48 1020.2
20260502100308 47 233 2.0 2.0 0.00 0.00 0.00 48 1020.1
20260502091241 47 236 1.0 1.0 0.00 0.00 0.00 48 1019.8
20260502090738 47 234 0.0 0.0 0.00 0.00 0.00 48 1019.9
20260502090235 48 235 1.0 2.0 0.00 0.00 0.00 48 1019.8
20260502071136 48 244 2.0 2.0 0.00 0.00 0.00 49 1020.3
20260502070634 48 241 2.0 2.0 0.00 0.00 0.00 51 1020.3
20260502070131 48 243 1.0 1.0 0.00 0.00 0.00 50 1020.3
20260502065630 48 243 1.0 1.0 0.00 0.00 0.00 49 1020.3
20260502065127 48 244 1.0 1.0 0.00 0.00 0.00 47 1020.4
20260502064626 48 237 2.0 2.0 0.00 0.00 0.00 50 1019.9
20260502064122 48 240 3.0 3.0 0.00 0.00 0.00 53 1020.2
20260502063620 48 261 0.0 0.0 0.00 0.00 0.00 52 1020.2
20260502063117 49 261 0.0 0.0 0.00 0.00 0.00 51 1020.1
20260502062614 48 261 0.0 0.0 0.00 0.00 0.00 51 1019.9
20260502062112 48 262 0.0 0.0 0.00 0.00 0.00 50 1020.3
20260502061610 48 261 0.0 0.0 0.00 0.00 0.00 51 1020.4
20260502061108 48 257 0.0 1.0 0.00 0.00 0.00 53 1019.8
20260502060608 49 257 1.0 1.0 0.00 0.00 0.00 54 1020.1
20260502060105 49 256 0.0 0.0 0.00 0.00 0.00 50 1019.9
20260502055602 49 257 0.0 0.0 0.00 0.00 0.00 47 1019.8
20260502055100 50 257 0.0 0.0 0.00 0.00 0.00 47 1019.8
20260502054559 50 244 0.0 0.0 0.00 0.00 0.00 47 1020.1
20260502054055 50 244 1.0 1.0 0.00 0.00 0.00 47 1019.8
20260502053553 51 247 1.0 1.0 0.00 0.00 0.00 46 1019.7
20260502053050 51 267 0.0 0.0 0.00 0.00 0.00 43 1019.9
20260502052549 51 264 2.0 2.0 0.00 0.00 0.00 43 1019.9
20260502052046 51 256 0.0 0.0 0.00 0.00 0.00 46 1019.6
20260502051544 52 255 0.0 0.0 0.00 0.00 0.00 43 1019.8
20260502051042 52 255 0.0 0.0 0.00 0.00 0.00 41 1019.9
20260502050537 52 254 0.0 0.0 0.00 0.00 0.00 41 1019.8
20260502050035 52 254 0.0 0.0 0.00 0.00 0.00 42 1019.9
20260502045531 52 254 0.0 0.0 0.00 0.00 0.00 42 1020.1
20260502045029 52 259 0.0 0.0 0.00 0.00 0.00 44 1020.1
20260502044525 53 261 0.0 0.0 0.00 0.00 0.00 41 1019.9
20260502044022 53 269 0.0 0.0 0.00 0.00 0.00 38 1019.8
20260502043519 54 285 0.0 0.0 0.00 0.00 0.00 37 1019.7
20260502043015 54 289 1.0 1.0 0.00 0.00 0.00 36 1019.7
20260502042510 54 312 3.0 3.0 0.00 0.00 0.00 36 1019.8
20260502042008 54 306 2.0 2.0 0.00 0.00 0.00 36 1019.8
20260502041506 54 302 1.0 2.0 0.00 0.00 0.00 37 1019.6
20260502041003 54 306 1.0 1.0 0.00 0.00 0.00 36 1019.8
20260502040459 55 305 2.0 2.0 0.00 0.00 0.00 36 1019.7
20260502035956 54 313 2.0 2.0 0.00 0.00 0.00 36 1019.7
20260502035451 55 305 0.0 0.0 0.00 0.00 0.00 36 1019.5
20260502034950 55 279 0.0 0.0 0.00 0.00 0.00 36 1019.5
20260502034448 55 274 0.0 0.0 0.00 0.00 0.00 36 1019.4
20260502033946 55 287 0.0 0.0 0.00 0.00 0.00 36 1019.6
20260502033443 55 275 0.0 0.0 0.00 0.00 0.00 36 1019.4
20260502032940 55 283 0.0 1.0 0.00 0.00 0.00 36 1019.1
20260502032436 55 283 0.0 0.0 0.00 0.00 0.00 35 1019.1
20260502031933 55 303 2.0 2.0 0.00 0.00 0.00 34 1019.2
20260502031432 56 320 4.0 6.0 0.00 0.00 0.00 34 1019.0
20260502030930 56 277 3.0 3.0 0.00 0.00 0.00 34 1018.9
20260502030428 56 298 3.0 3.0 0.00 0.00 0.00 34 1018.9
20260502025925 57 290 3.0 3.0 0.00 0.00 0.00 34 1018.4
20260502025422 57 304 2.0 2.0 0.00 0.00 0.00 34 1018.6
20260502024920 57 294 1.0 2.0 0.00 0.00 0.00 34 1018.6
20260502024418 57 327 4.0 5.0 0.00 0.00 0.00 33 1018.7
20260502023916 58 312 1.0 2.0 0.00 0.00 0.00 33 1018.3
20260502023413 58 304 2.0 3.0 0.00 0.00 0.00 32 1018.6
20260502022910 59 319 4.0 6.0 0.00 0.00 0.00 31 1018.8
20260502022407 59 296 1.0 1.0 0.00 0.00 0.00 31 1018.6
20260502021903 59 322 3.0 3.0 0.00 0.00 0.00 30 1018.6
20260502021401 60 301 6.0 7.0 0.00 0.00 0.00 30 1018.4
20260502020858 60 293 3.0 3.0 0.00 0.00 0.00 30 1018.2
20260502020356 60 274 5.0 6.0 0.00 0.00 0.00 29 1018.2
20260502015852 61 297 4.0 5.0 0.00 0.00 0.00 29 1018.3
20260502015350 61 275 6.0 7.0 0.00 0.00 0.00 28 1018.3
20260502014847 61 299 2.0 3.0 0.00 0.00 0.00 29 1018.3
20260502014344 61 315 4.0 5.0 0.00 0.00 0.00 28 1018.4
20260502013840 62 316 3.0 5.0 0.00 0.00 0.00 28 1018.2
20260502013335 62 351 4.0 7.0 0.00 0.00 0.00 28 1018.4
20260502012832 62 331 7.0 10.0 0.00 0.00 0.00 28 1018.3
20260502012330 63 0 4.0 6.0 0.00 0.00 0.00 28 1018.1
20260502011827 62 23 7.0 9.0 0.00 0.00 0.00 28 1018.1
20260502011323 63 354 7.0 8.0 0.00 0.00 0.00 28 1018.1
20260502010821 62 352 5.0 7.0 0.00 0.00 0.00 28 1018.3
20260502010317 62 330 4.0 5.0 0.00 0.00 0.00 29 1018.1
20260502005814 63 14 7.0 9.0 0.00 0.00 0.00 28 1018.1
20260502005312 63 18 2.0 6.0 0.00 0.00 0.00 28 1018.2
20260502004809 63 329 5.0 7.0 0.00 0.00 0.00 28 1018.1
20260502004305 64 323 4.0 5.0 0.00 0.00 0.00 28 1018.2
20260502003803 63 328 4.0 6.0 0.00 0.00 0.00 28 1018.1
20260502003259 63 351 5.0 7.0 0.00 0.00 0.00 28 1018.2
20260502002755 63 42 7.0 9.0 0.00 0.00 0.00 27 1018.0
20260502002253 64 341 6.0 8.0 0.00 0.00 0.00 28 1017.9
20260502001750 63 15 7.0 8.0 0.00 0.00 0.00 27 1018.3
20260502001248 63 46 7.0 11.0 0.00 0.00 0.00 27 1018.1
20260502000746 63 353 8.0 10.0 0.00 0.00 0.00 28 1018.1
20260502000244 64 2 4.0 5.0 0.00 0.00 0.00 27 1018.1
20260501235738 63 67 6.0 7.0 0.00 0.00 0.00 27 1018.4
20260501235235 63 354 3.0 3.0 0.00 0.00 0.00 27 1018.1
20260501234731 63 314 8.0 10.0 0.00 0.00 0.00 27 1018.2
20260501234228 64 329 5.0 7.0 0.00 0.00 0.00 27 1018.3
20260501233726 63 281 6.0 8.0 0.00 0.00 0.00 27 1018.3
20260501233224 63 317 2.0 3.0 0.00 0.00 0.00 27 1018.3
20260501232718 64 88 5.0 7.0 0.00 0.00 0.00 26 1018.1
20260501232216 64 318 3.0 3.0 0.00 0.00 0.00 26 1018.2
20260501231714 64 11 6.0 8.0 0.00 0.00 0.00 26 1018.1
20260501231212 64 92 2.0 5.0 0.00 0.00 0.00 25 1018.3
20260501230710 64 27 4.0 8.0 0.00 0.00 0.00 26 1018.3
20260501230208 63 77 5.0 6.0 0.00 0.00 0.00 25 1018.2
20260501225705 64 344 3.0 3.0 0.00 0.00 0.00 25 1018.2
20260501225202 64 20 5.0 7.0 0.00 0.00 0.00 24 1018.6
20260501224658 63 346 2.0 3.0 0.00 0.00 0.00 25 1018.6
20260501224156 63 308 5.0 7.0 0.00 0.00 0.00 25 1018.4
20260501223652 64 18 5.0 8.0 0.00 0.00 0.00 24 1018.3
20260501223149 64 25 5.0 8.0 0.00 0.00 0.00 24 1018.7
20260501222645 64 337 5.0 8.0 0.00 0.00 0.00 24 1018.7
20260501222142 65 337 4.0 6.0 0.00 0.00 0.00 25 1018.6
20260501221638 65 326 8.0 10.0 0.00 0.00 0.00 24 1018.4
20260501221137 63 358 2.0 3.0 0.00 0.00 0.00 25 1018.6
20260501220634 64 258 7.0 8.0 0.00 0.00 0.00 24 1018.6
20260501220130 64 324 4.0 6.0 0.00 0.00 0.00 25 1018.4
20260501215627 64 30 8.0 9.0 0.00 0.00 0.00 25 1018.9
20260501215122 65 98 8.0 9.0 0.00 0.00 0.00 24 1018.9
20260501214618 65 321 4.0 9.0 0.00 0.00 0.00 25 1018.7
20260501214113 64 345 6.0 9.0 0.00 0.00 0.00 25 1018.8
20260501213611 64 331 7.0 7.0 0.00 0.00 0.00 26 1018.9
20260501213107 64 275 4.0 5.0 0.00 0.00 0.00 26 1019.0
20260501212603 64 308 7.0 9.0 0.00 0.00 0.00 26 1018.9
20260501212100 64 301 8.0 9.0 0.00 0.00 0.00 26 1018.9
20260501211556 64 2 6.0 7.0 0.00 0.00 0.00 24 1018.9
20260501211055 64 30 2.0 3.0 0.00 0.00 0.00 26 1019.0
20260501210550 64 199 1.0 2.0 0.00 0.00 0.00 25 1019.1
20260501210048 64 60 2.0 2.0 0.00 0.00 0.00 25 1019.4
20260501205544 63 92 4.0 5.0 0.00 0.00 0.00 26 1019.1
20260501205042 63 6 6.0 8.0 0.00 0.00 0.00 26 1019.0
20260501204538 63 288 3.0 5.0 0.00 0.00 0.00 26 1019.2
20260501204034 63 322 3.0 5.0 0.00 0.00 0.00 25 1019.2
20260501203531 62 277 5.0 6.0 0.00 0.00 0.00 26 1019.2
20260501203029 63 359 9.0 11.0 0.00 0.00 0.00 26 1018.9
20260501202525 63 113 2.0 3.0 0.00 0.00 0.00 25 1019.2
20260501202022 62 294 5.0 8.0 0.00 0.00 0.00 27 1019.0
20260501201519 63 274 4.0 5.0 0.00 0.00 0.00 26 1019.2
20260501201015 62 241 0.0 1.0 0.00 0.00 0.00 26 1019.2
20260501200513 62 271 6.0 7.0 0.00 0.00 0.00 27 1019.1
20260501200010 63 292 7.0 10.0 0.00 0.00 0.00 26 1019.2
20260501195507 61 80 3.0 3.0 0.00 0.00 0.00 26 1019.5
20260501195003 62 226 0.0 1.0 0.00 0.00 0.00 24 1019.5
20260501194458 62 293 5.0 7.0 0.00 0.00 0.00 25 1019.6
20260501193954 63 304 1.0 2.0 0.00 0.00 0.00 26 1019.6
20260501193452 61 112 1.0 1.0 0.00 0.00 0.00 25 1019.5
20260501192950 61 53 3.0 6.0 0.00 0.00 0.00 26 1019.6
20260501192447 61 12 7.0 8.0 0.00 0.00 0.00 26 1019.6
20260501191944 63 276 8.0 9.0 0.00 0.00 0.00 25 1019.7
20260501191441 63 154 4.0 5.0 0.00 0.00 0.00 23 1019.6
20260501190938 61 21 5.0 9.0 0.00 0.00 0.00 25 1019.8
20260501190434 61 253 3.0 3.0 0.00 0.00 0.00 25 1019.8
20260501185929 61 42 8.0 9.0 0.00 0.00 0.00 25 1019.8
20260501185426 62 1 10.0 11.0 0.00 0.00 0.00 26 1019.8
20260501184921 61 312 5.0 8.0 0.00 0.00 0.00 27 1019.8
20260501184418 62 358 6.0 8.0 0.00 0.00 0.00 27 1019.9
20260501183913 60 6 7.0 9.0 0.00 0.00 0.00 28 1020.2
20260501183411 60 314 4.0 5.0 0.00 0.00 0.00 28 1019.9
20260501182907 60 319 1.0 2.0 0.00 0.00 0.00 26 1020.1
20260501182404 60 37 3.0 5.0 0.00 0.00 0.00 26 1019.9
20260501181900 61 109 7.0 9.0 0.00 0.00 0.00 26 1020.2
20260501181357 59 85 5.0 9.0 0.00 0.00 0.00 26 1020.4
20260501180855 61 291 2.0 3.0 0.00 0.00 0.00 24 1020.2
20260501180351 61 93 4.0 7.0 0.00 0.00 0.00 27 1019.9
20260501175848 60 17 6.0 8.0 0.00 0.00 0.00 27 1020.3
20260501175345 60 345 3.0 3.0 0.00 0.00 0.00 27 1020.4
20260501174842 58 335 1.0 2.0 0.00 0.00 0.00 29 1020.4
20260501174339 58 253 4.0 5.0 0.00 0.00 0.00 31 1020.5
20260501173837 58 340 5.0 7.0 0.00 0.00 0.00 31 1020.6
20260501173334 58 262 3.0 5.0 0.00 0.00 0.00 31 1020.5
20260501172830 58 36 5.0 6.0 0.00 0.00 0.00 31 1020.4
20260501172325 59 54 0.0 0.0 0.00 0.00 0.00 30 1020.7
20260501171821 58 319 0.0 0.0 0.00 0.00 0.00 30 1020.5
20260501171318 58 265 2.0 2.0 0.00 0.00 0.00 32 1020.5
20260501170814 58 118 2.0 2.0 0.00 0.00 0.00 31 1020.5
20260501170311 57 249 5.0 6.0 0.00 0.00 0.00 32 1020.5
20260501165809 58 94 5.0 7.0 0.00 0.00 0.00 31 1020.6
20260501165307 59 255 0.0 0.0 0.00 0.00 0.00 30 1020.6
20260501164804 57 6 4.0 6.0 0.00 0.00 0.00 33 1020.7
20260501164301 57 55 4.0 6.0 0.00 0.00 0.00 31 1020.5
20260501163756 56 265 2.0 2.0 0.00 0.00 0.00 32 1020.5
20260501163254 56 350 3.0 3.0 0.00 0.00 0.00 33 1020.6
20260501162750 56 31 2.0 2.0 0.00 0.00 0.00 33 1020.6
20260501162247 56 100 2.0 2.0 0.00 0.00 0.00 32 1020.6
20260501161738 55 274 0.0 0.0 0.00 0.00 0.00 34 1020.5
20260501161235 55 269 3.0 3.0 0.00 0.00 0.00 36 1020.4
20260501160731 57 284 1.0 2.0 0.00 0.00 0.00 36 1020.4
20260501160229 56 118 0.0 0.0 0.00 0.00 0.00 35 1020.4
20260501155726 57 341 3.0 3.0 0.00 0.00 0.00 35 1020.3
20260501155223 56 126 1.0 1.0 0.00 0.00 0.00 37 1020.6
20260501154719 56 89 3.0 5.0 0.00 0.00 0.00 38 1020.2
20260501154217 54 144 3.0 3.0 0.00 0.00 0.00 40 1020.1
20260501153714 55 66 3.0 3.0 0.00 0.00 0.00 40 1020.2
20260501153211 58 88 2.0 3.0 0.00 0.00 0.00 36 1020.3
20260501152707 57 213 0.0 0.0 0.00 0.00 0.00 34 1020.3
20260501152205 55 246 1.0 1.0 0.00 0.00 0.00 37 1020.1
20260501151702 55 264 0.0 0.0 0.00 0.00 0.00 36 1020.2
20260501151158 55 271 1.0 1.0 0.00 0.00 0.00 36 1020.2
20260501150654 54 32 2.0 2.0 0.00 0.00 0.00 37 1020.3
20260501150151 54 74 0.0 1.0 0.00 0.00 0.00 37 1020.3
20260501145647 53 309 0.0 0.0 0.00 0.00 0.00 40 1020.5
20260501145145 53 17 1.0 1.0 0.00 0.00 0.00 40 1020.3
20260501144641 53 32 2.0 3.0 0.00 0.00 0.00 40 1019.9
20260501144136 52 320 0.0 1.0 0.00 0.00 0.00 43 1020.1
20260501143632 51 309 1.0 1.0 0.00 0.00 0.00 42 1019.9
20260501143130 52 280 0.0 1.0 0.00 0.00 0.00 41 1019.9
20260501142627 54 280 0.0 0.0 0.00 0.00 0.00 41 1020.2
20260501142123 50 297 0.0 0.0 0.00 0.00 0.00 45 1019.9
20260501141619 50 334 2.0 2.0 0.00 0.00 0.00 46 1019.9
20260501141117 50 296 0.0 0.0 0.00 0.00 0.00 46 1019.8
20260501140613 49 306 0.0 1.0 0.00 0.00 0.00 47 1019.6
20260501140110 49 321 2.0 2.0 0.00 0.00 0.00 47 1019.9
20260501135606 49 317 1.0 1.0 0.00 0.00 0.00 47 1019.9
20260501135104 48 287 1.0 1.0 0.00 0.00 0.00 48 1019.7
20260501134600 48 289 1.0 1.0 0.00 0.00 0.00 48 1019.8